Year,Month,Day,Hour,Minute,Value (Times are PST for temperature in C)
2014,03,09,00,00,9.20
2014,03,09,00,01,9.20
2014,03,09,00,02,9.20
2014,03,09,00,03,9.20
2014,03,09,00,04,9.20
2014,03,09,00,05,9.30
2014,03,09,00,06,9.30
2014,03,09,00,07,9.30
2014,03,09,00,08,9.30
2014,03,09,00,09,9.30
2014,03,09,00,10,9.30
2014,03,09,00,11,9.30
2014,03,09,00,12,9.40
2014,03,09,00,13,9.40
2014,03,09,00,14,9.40
2014,03,09,00,15,9.40
2014,03,09,00,16,9.40
2014,03,09,00,17,9.40
2014,03,09,00,18,9.40
2014,03,09,00,19,9.40
2014,03,09,00,20,9.40
2014,03,09,00,21,9.40
2014,03,09,00,22,9.40
2014,03,09,00,23,9.40
2014,03,09,00,24,9.40
2014,03,09,00,25,9.40
2014,03,09,00,26,9.50
2014,03,09,00,27,9.50
2014,03,09,00,28,9.50
2014,03,09,00,29,9.50
2014,03,09,00,30,9.50
2014,03,09,00,31,9.50
2014,03,09,00,32,9.50
2014,03,09,00,33,9.50
2014,03,09,00,34,9.50
2014,03,09,00,35,9.50
2014,03,09,00,36,9.50
2014,03,09,00,37,9.50
2014,03,09,00,38,9.50
2014,03,09,00,39,9.50
2014,03,09,00,40,9.50
2014,03,09,00,41,9.50
2014,03,09,00,42,9.50
2014,03,09,00,43,9.50
2014,03,09,00,44,9.60
2014,03,09,00,45,9.60
2014,03,09,00,46,9.60
2014,03,09,00,47,9.60
2014,03,09,00,48,9.60
2014,03,09,00,49,9.60
2014,03,09,00,50,9.60
2014,03,09,00,51,9.60
2014,03,09,00,52,9.70
2014,03,09,00,53,9.70
2014,03,09,00,54,9.70
2014,03,09,00,55,9.70
2014,03,09,00,56,9.70
2014,03,09,00,57,9.70
2014,03,09,00,58,9.70
2014,03,09,00,59,9.70
2014,03,09,01,00,9.70
2014,03,09,01,01,9.70
2014,03,09,01,02,9.70
2014,03,09,01,03,9.70
2014,03,09,01,04,9.70
2014,03,09,01,05,9.70
2014,03,09,01,06,9.70
2014,03,09,01,07,9.70
2014,03,09,01,08,9.70
2014,03,09,01,09,9.70
2014,03,09,01,10,9.70
2014,03,09,01,11,9.70
2014,03,09,01,12,9.70
2014,03,09,01,13,9.70
2014,03,09,01,14,9.70
2014,03,09,01,15,9.70
2014,03,09,01,16,9.70
2014,03,09,01,17,9.70
2014,03,09,01,18,9.70
2014,03,09,01,19,9.70
2014,03,09,01,20,9.70
2014,03,09,01,21,9.70
2014,03,09,01,22,9.70
2014,03,09,01,23,9.70
2014,03,09,01,24,9.70
2014,03,09,01,25,9.60
2014,03,09,01,26,9.60
2014,03,09,01,27,9.70
2014,03,09,01,28,9.70
2014,03,09,01,29,9.70
2014,03,09,01,30,9.70
2014,03,09,01,31,9.70
2014,03,09,01,32,9.70
2014,03,09,01,33,9.70
2014,03,09,01,34,9.70
2014,03,09,01,35,9.70
2014,03,09,01,36,9.70
2014,03,09,01,37,9.70
2014,03,09,01,38,9.70
2014,03,09,01,39,9.70
2014,03,09,01,40,9.70
2014,03,09,01,41,9.60
2014,03,09,01,42,9.60
2014,03,09,01,43,9.60
2014,03,09,01,44,9.60
2014,03,09,01,45,9.60
2014,03,09,01,46,9.60
2014,03,09,01,47,9.60
2014,03,09,01,48,9.60
2014,03,09,01,49,9.60
2014,03,09,01,50,9.60
2014,03,09,01,51,9.60
2014,03,09,01,52,9.60
2014,03,09,01,53,9.60
2014,03,09,01,54,9.60
2014,03,09,01,55,9.60
2014,03,09,01,56,9.60
2014,03,09,01,57,9.60
2014,03,09,01,58,9.60
2014,03,09,01,59,9.60
2014,03,09,03,00,9.60
2014,03,09,03,01,9.70
2014,03,09,03,02,9.70
2014,03,09,03,03,9.70
2014,03,09,03,04,9.70
2014,03,09,03,05,9.70
2014,03,09,03,06,9.70
2014,03,09,03,07,9.70
2014,03,09,03,08,9.70
2014,03,09,03,09,9.70
2014,03,09,03,10,9.70
2014,03,09,03,11,9.70
2014,03,09,03,12,9.70
2014,03,09,03,13,9.70
2014,03,09,03,14,9.70
2014,03,09,03,15,9.70
2014,03,09,03,16,9.70
2014,03,09,03,17,9.70
2014,03,09,03,18,9.70
2014,03,09,03,19,9.70
2014,03,09,03,20,9.70
2014,03,09,03,21,9.70
2014,03,09,03,22,9.70
2014,03,09,03,23,9.70
2014,03,09,03,24,9.70
2014,03,09,03,25,9.70
2014,03,09,03,26,9.70
2014,03,09,03,27,9.70
2014,03,09,03,28,9.70
2014,03,09,03,29,9.70
2014,03,09,03,30,9.70
2014,03,09,03,31,9.70
2014,03,09,03,32,9.70
2014,03,09,03,33,9.70
2014,03,09,03,34,9.70
2014,03,09,03,35,9.70
2014,03,09,03,36,9.70
2014,03,09,03,37,9.70
2014,03,09,03,38,9.70
2014,03,09,03,39,9.70
2014,03,09,03,40,9.70
2014,03,09,03,41,9.70
2014,03,09,03,42,9.70
2014,03,09,03,43,9.70
2014,03,09,03,44,9.70
2014,03,09,03,45,9.70
2014,03,09,03,46,9.70
2014,03,09,03,47,9.70
2014,03,09,03,48,9.70
2014,03,09,03,49,9.70
2014,03,09,03,50,9.70
2014,03,09,03,51,9.70
2014,03,09,03,52,9.70
2014,03,09,03,53,9.70
2014,03,09,03,54,9.70
2014,03,09,03,55,9.70
2014,03,09,03,56,9.70
2014,03,09,03,57,9.70
2014,03,09,03,58,9.70
2014,03,09,03,59,9.70
2014,03,09,04,00,9.70
2014,03,09,04,01,9.70
2014,03,09,04,02,9.70
2014,03,09,04,03,9.70
2014,03,09,04,04,9.70
2014,03,09,04,05,9.70
2014,03,09,04,06,9.70
2014,03,09,04,07,9.70
2014,03,09,04,08,9.70
2014,03,09,04,09,9.70
2014,03,09,04,10,9.70
2014,03,09,04,11,9.70
2014,03,09,04,12,9.70
2014,03,09,04,13,9.70
2014,03,09,04,14,9.70
2014,03,09,04,15,9.70
2014,03,09,04,16,9.70
2014,03,09,04,17,9.70
2014,03,09,04,18,9.70
2014,03,09,04,19,9.70
2014,03,09,04,20,9.70
2014,03,09,04,21,9.70
2014,03,09,04,22,9.70
2014,03,09,04,23,9.70
2014,03,09,04,24,9.70
2014,03,09,04,25,9.60
2014,03,09,04,26,9.60
2014,03,09,04,27,9.60
2014,03,09,04,28,9.60
2014,03,09,04,29,9.60
2014,03,09,04,30,9.60
2014,03,09,04,31,9.70
2014,03,09,04,32,9.70
2014,03,09,04,33,9.70
2014,03,09,04,34,9.70
2014,03,09,04,35,9.70
2014,03,09,04,36,9.70
2014,03,09,04,37,9.70
2014,03,09,04,38,9.70
2014,03,09,04,39,9.70
2014,03,09,04,40,9.70
2014,03,09,04,41,9.70
2014,03,09,04,42,9.70
2014,03,09,04,43,9.70
2014,03,09,04,44,9.70
2014,03,09,04,45,9.70
2014,03,09,04,46,9.70
2014,03,09,04,47,9.70
2014,03,09,04,48,9.70
2014,03,09,04,49,9.70
2014,03,09,04,50,9.70
2014,03,09,04,51,9.70
2014,03,09,04,52,9.70
2014,03,09,04,53,9.60
2014,03,09,04,54,9.60
2014,03,09,04,55,9.60
2014,03,09,04,56,9.60
2014,03,09,04,57,9.60
2014,03,09,04,58,9.60
2014,03,09,04,59,9.60
2014,03,09,05,00,9.60
2014,03,09,05,01,9.60
2014,03,09,05,02,9.60
2014,03,09,05,03,9.60
2014,03,09,05,04,9.60
2014,03,09,05,05,9.60
2014,03,09,05,06,9.60
2014,03,09,05,07,9.50
2014,03,09,05,08,9.50
2014,03,09,05,09,9.50
2014,03,09,05,10,9.50
2014,03,09,05,11,9.40
2014,03,09,05,12,9.40
2014,03,09,05,13,9.40
2014,03,09,05,14,9.40
2014,03,09,05,15,9.40
2014,03,09,05,16,9.40
2014,03,09,05,17,9.30
2014,03,09,05,18,9.30
2014,03,09,05,19,9.30
2014,03,09,05,20,9.30
2014,03,09,05,21,9.30
2014,03,09,05,22,9.30
2014,03,09,05,23,9.30
2014,03,09,05,24,9.20
2014,03,09,05,25,9.20
2014,03,09,05,26,9.20
2014,03,09,05,27,9.20
2014,03,09,05,28,9.20
2014,03,09,05,29,9.20
2014,03,09,05,30,9.20
2014,03,09,05,31,9.20
2014,03,09,05,32,9.20
2014,03,09,05,33,9.10
2014,03,09,05,34,9.10
2014,03,09,05,35,9.10
2014,03,09,05,36,9.10
2014,03,09,05,37,9.00
2014,03,09,05,38,9.00
2014,03,09,05,39,9.00
2014,03,09,05,40,9.00
2014,03,09,05,41,9.00
2014,03,09,05,42,9.00
2014,03,09,05,43,9.00
2014,03,09,05,44,8.90
2014,03,09,05,45,8.90
2014,03,09,05,46,8.90
2014,03,09,05,47,8.90
2014,03,09,05,48,8.90
2014,03,09,05,49,8.90
2014,03,09,05,50,8.90
2014,03,09,05,51,8.80
2014,03,09,05,52,8.80
2014,03,09,05,53,8.80
2014,03,09,05,54,8.80
2014,03,09,05,55,8.80
2014,03,09,05,56,8.80
2014,03,09,05,57,8.80
2014,03,09,05,58,8.80
2014,03,09,05,59,8.80
2014,03,09,06,00,8.80
2014,03,09,06,01,8.80
2014,03,09,06,02,8.80
2014,03,09,06,03,8.70
2014,03,09,06,04,8.70
2014,03,09,06,05,8.70
2014,03,09,06,06,8.70
2014,03,09,06,07,8.70
2014,03,09,06,08,8.70
2014,03,09,06,09,8.70
2014,03,09,06,10,8.70
2014,03,09,06,11,8.70
2014,03,09,06,12,8.70
2014,03,09,06,13,8.70
2014,03,09,06,14,8.70
2014,03,09,06,15,8.70
2014,03,09,06,16,8.70
2014,03,09,06,17,8.70
2014,03,09,06,18,8.60
2014,03,09,06,19,8.60
2014,03,09,06,20,8.60
2014,03,09,06,21,8.50
2014,03,09,06,22,8.50
2014,03,09,06,23,8.50
2014,03,09,06,24,8.50
2014,03,09,06,25,8.50
2014,03,09,06,26,8.40
2014,03,09,06,27,8.40
2014,03,09,06,28,8.30
2014,03,09,06,29,8.30
2014,03,09,06,30,8.30
2014,03,09,06,31,8.30
2014,03,09,06,32,8.20
2014,03,09,06,33,8.20
2014,03,09,06,34,8.20
2014,03,09,06,35,8.20
2014,03,09,06,36,8.20
2014,03,09,06,37,8.20
2014,03,09,06,38,8.10
2014,03,09,06,39,8.10
2014,03,09,06,40,8.10
2014,03,09,06,41,8.10
2014,03,09,06,42,8.10
2014,03,09,06,43,8.10
2014,03,09,06,44,8.10
2014,03,09,06,45,8.10
2014,03,09,06,46,8.10
2014,03,09,06,47,8.10
2014,03,09,06,48,8.10
2014,03,09,06,49,8.00
2014,03,09,06,50,8.00
2014,03,09,06,51,8.00
2014,03,09,06,52,8.00
2014,03,09,06,53,8.00
2014,03,09,06,54,8.00
2014,03,09,06,55,7.90
2014,03,09,06,56,7.90
2014,03,09,06,57,7.90
2014,03,09,06,58,7.90
2014,03,09,06,59,7.90
2014,03,09,07,00,7.90
2014,03,09,07,01,7.90
2014,03,09,07,02,7.90
2014,03,09,07,03,7.90
2014,03,09,07,04,7.90
2014,03,09,07,05,7.90
2014,03,09,07,06,7.80
2014,03,09,07,07,7.80
2014,03,09,07,08,7.80
2014,03,09,07,09,7.80
2014,03,09,07,10,7.80
2014,03,09,07,11,7.70
2014,03,09,07,12,7.70
2014,03,09,07,13,7.70
2014,03,09,07,14,7.60
2014,03,09,07,15,7.60
2014,03,09,07,16,7.60
2014,03,09,07,17,7.60
2014,03,09,07,18,7.60
2014,03,09,07,19,7.60
2014,03,09,07,20,7.60
2014,03,09,07,21,7.60
2014,03,09,07,22,7.60
2014,03,09,07,23,7.60
2014,03,09,07,24,7.60
2014,03,09,07,25,7.60
2014,03,09,07,26,7.60
2014,03,09,07,27,7.60
2014,03,09,07,28,7.60
2014,03,09,07,29,7.60
2014,03,09,07,30,7.60
2014,03,09,07,31,7.60
2014,03,09,07,32,7.70
2014,03,09,07,33,7.70
2014,03,09,07,34,7.70
2014,03,09,07,35,7.80
2014,03,09,07,36,7.80
2014,03,09,07,37,7.80
2014,03,09,07,38,7.80
2014,03,09,07,39,7.80
2014,03,09,07,40,7.80
2014,03,09,07,41,7.80
2014,03,09,07,42,7.80
2014,03,09,07,43,7.80
2014,03,09,07,44,7.90
2014,03,09,07,45,7.90
2014,03,09,07,46,7.90
2014,03,09,07,47,7.90
2014,03,09,07,48,7.90
2014,03,09,07,49,8.00
2014,03,09,07,50,8.00
2014,03,09,07,51,8.00
2014,03,09,07,52,8.00
2014,03,09,07,53,8.00
2014,03,09,07,54,8.00
2014,03,09,07,55,8.00
2014,03,09,07,56,8.00
2014,03,09,07,57,8.00
2014,03,09,07,58,8.00
2014,03,09,07,59,8.00
2014,03,09,08,00,8.10
2014,03,09,08,01,8.10
2014,03,09,08,02,8.10
2014,03,09,08,03,8.10
2014,03,09,08,04,8.00
2014,03,09,08,05,8.00
2014,03,09,08,06,8.00
2014,03,09,08,07,8.00
2014,03,09,08,08,7.90
2014,03,09,08,09,7.90
2014,03,09,08,10,7.80
2014,03,09,08,11,7.80
2014,03,09,08,12,7.80
2014,03,09,08,13,7.70
2014,03,09,08,14,7.70
2014,03,09,08,15,7.70
2014,03,09,08,16,7.60
2014,03,09,08,17,7.60
2014,03,09,08,18,7.50
2014,03,09,08,19,7.50
2014,03,09,08,20,7.50
2014,03,09,08,21,7.50
2014,03,09,08,22,7.50
2014,03,09,08,23,7.50
2014,03,09,08,24,7.60
2014,03,09,08,25,7.60
2014,03,09,08,26,7.70
2014,03,09,08,27,7.70
2014,03,09,08,28,7.80
2014,03,09,08,29,7.80
2014,03,09,08,30,7.80
2014,03,09,08,31,7.90
2014,03,09,08,32,7.90
2014,03,09,08,33,8.00
2014,03,09,08,34,8.10
2014,03,09,08,35,8.20
2014,03,09,08,36,8.20
2014,03,09,08,37,8.30
2014,03,09,08,38,8.40
2014,03,09,08,39,8.40
2014,03,09,08,40,8.50
2014,03,09,08,41,8.60
2014,03,09,08,42,8.60
2014,03,09,08,43,8.70
2014,03,09,08,44,8.70
2014,03,09,08,45,8.70
2014,03,09,08,46,8.80
2014,03,09,08,47,8.80
2014,03,09,08,48,8.90
2014,03,09,08,49,8.90
2014,03,09,08,50,9.00
2014,03,09,08,51,9.10
2014,03,09,08,52,9.10
2014,03,09,08,53,9.20
2014,03,09,08,54,9.20
2014,03,09,08,55,9.20
2014,03,09,08,56,9.20
2014,03,09,08,57,9.30
2014,03,09,08,58,9.30
2014,03,09,08,59,9.30
2014,03,09,09,00,9.40
2014,03,09,09,01,9.40
2014,03,09,09,02,9.40
2014,03,09,09,03,9.50
2014,03,09,09,04,9.50
2014,03,09,09,05,9.60
2014,03,09,09,06,9.60
2014,03,09,09,07,9.60
2014,03,09,09,08,9.70
2014,03,09,09,09,9.70
2014,03,09,09,10,9.70
2014,03,09,09,11,9.70
2014,03,09,09,12,9.80
2014,03,09,09,13,9.80
2014,03,09,09,14,9.90
2014,03,09,09,15,9.90
2014,03,09,09,16,9.90
2014,03,09,09,17,9.90
2014,03,09,09,18,10.00
2014,03,09,09,19,10.10
2014,03,09,09,20,10.10
2014,03,09,09,21,10.10
2014,03,09,09,22,10.10
2014,03,09,09,23,10.10
2014,03,09,09,24,10.10
2014,03,09,09,25,10.10
2014,03,09,09,26,10.20
2014,03,09,09,27,10.20
2014,03,09,09,28,10.30
2014,03,09,09,29,10.30
2014,03,09,09,30,10.40
2014,03,09,09,31,10.40
2014,03,09,09,32,10.40
2014,03,09,09,33,10.40
2014,03,09,09,34,10.40
2014,03,09,09,35,10.40
2014,03,09,09,36,10.40
2014,03,09,09,37,10.40
2014,03,09,09,38,10.40
2014,03,09,09,39,10.40
2014,03,09,09,40,10.40
2014,03,09,09,41,10.50
2014,03,09,09,42,10.50
2014,03,09,09,43,10.60
2014,03,09,09,44,10.60
2014,03,09,09,45,10.60
2014,03,09,09,46,10.60
2014,03,09,09,47,10.60
2014,03,09,09,48,10.60
2014,03,09,09,49,10.70
2014,03,09,09,50,10.70
2014,03,09,09,51,10.70
2014,03,09,09,52,10.70
2014,03,09,09,53,10.70
2014,03,09,09,54,10.70
2014,03,09,09,55,10.70
2014,03,09,09,56,10.80
2014,03,09,09,57,10.80
2014,03,09,09,58,10.80
2014,03,09,09,59,10.80
2014,03,09,10,00,10.90
2014,03,09,10,01,10.90
2014,03,09,10,02,10.90
2014,03,09,10,03,10.90
2014,03,09,10,04,10.90
2014,03,09,10,05,10.90
2014,03,09,10,06,10.90
2014,03,09,10,07,10.90
2014,03,09,10,08,10.90
2014,03,09,10,09,10.90
2014,03,09,10,10,10.90
2014,03,09,10,11,10.90
2014,03,09,10,12,10.90
2014,03,09,10,13,10.90
2014,03,09,10,14,10.90
2014,03,09,10,15,10.90
2014,03,09,10,16,10.90
2014,03,09,10,17,10.90
2014,03,09,10,18,10.90
2014,03,09,10,19,10.90
2014,03,09,10,20,10.90
2014,03,09,10,21,10.90
2014,03,09,10,22,10.90
2014,03,09,10,23,10.90
2014,03,09,10,24,10.90
2014,03,09,10,25,10.90
2014,03,09,10,26,10.90
2014,03,09,10,27,10.90
2014,03,09,10,28,11.00
2014,03,09,10,29,11.10
2014,03,09,10,30,11.10
2014,03,09,10,31,11.10
2014,03,09,10,32,11.10
2014,03,09,10,33,11.10
2014,03,09,10,34,11.20
2014,03,09,10,35,11.20
2014,03,09,10,36,11.30
2014,03,09,10,37,11.30
2014,03,09,10,38,11.40
2014,03,09,10,39,11.50
2014,03,09,10,40,11.60
2014,03,09,10,41,11.60
2014,03,09,10,42,11.60
2014,03,09,10,43,11.70
2014,03,09,10,44,11.70
2014,03,09,10,45,11.80
2014,03,09,10,46,11.80
2014,03,09,10,47,11.80
2014,03,09,10,48,11.80
2014,03,09,10,49,11.80
2014,03,09,10,50,11.80
2014,03,09,10,51,11.80
2014,03,09,10,52,11.80
2014,03,09,10,53,11.80
2014,03,09,10,54,11.80
2014,03,09,10,55,11.80
2014,03,09,10,56,11.80
2014,03,09,10,57,11.80
2014,03,09,10,58,11.80
2014,03,09,10,59,11.80
2014,03,09,11,00,11.80
2014,03,09,11,01,11.80
2014,03,09,11,02,11.80
2014,03,09,11,03,11.80
2014,03,09,11,04,11.90
2014,03,09,11,05,11.90
2014,03,09,11,06,11.90
2014,03,09,11,07,11.90
2014,03,09,11,08,12.00
2014,03,09,11,09,12.00
2014,03,09,11,10,12.00
2014,03,09,11,11,12.00
2014,03,09,11,12,12.00
2014,03,09,11,13,12.10
2014,03,09,11,14,12.10
2014,03,09,11,15,12.10
2014,03,09,11,16,12.10
2014,03,09,11,17,12.20
2014,03,09,11,18,12.20
2014,03,09,11,19,12.20
2014,03,09,11,20,12.20
2014,03,09,11,21,12.20
2014,03,09,11,22,12.30
2014,03,09,11,23,12.30
2014,03,09,11,24,12.30
2014,03,09,11,25,12.30
2014,03,09,11,26,12.30
2014,03,09,11,27,12.40
2014,03,09,11,28,12.40
2014,03,09,11,29,12.40
2014,03,09,11,30,12.50
2014,03,09,11,31,12.50
2014,03,09,11,32,12.50
2014,03,09,11,33,12.40
2014,03,09,11,34,12.40
2014,03,09,11,35,12.40
2014,03,09,11,36,12.50
2014,03,09,11,37,12.50
2014,03,09,11,38,12.50
2014,03,09,11,39,12.60
2014,03,09,11,40,12.60
2014,03,09,11,41,12.60
2014,03,09,11,42,12.60
2014,03,09,11,43,12.60
2014,03,09,11,44,12.70
2014,03,09,11,45,12.80
2014,03,09,11,46,12.80
2014,03,09,11,47,12.80
2014,03,09,11,48,12.80
2014,03,09,11,49,12.80
2014,03,09,11,50,12.80
2014,03,09,11,51,12.80
2014,03,09,11,52,12.80
2014,03,09,11,53,12.80
2014,03,09,11,54,12.80
2014,03,09,11,55,12.80
2014,03,09,11,56,12.80
2014,03,09,11,57,12.80
2014,03,09,11,58,12.80
2014,03,09,11,59,12.80
2014,03,09,12,00,12.80
2014,03,09,12,01,12.80
2014,03,09,12,02,12.80
2014,03,09,12,03,12.80
2014,03,09,12,04,12.80
2014,03,09,12,05,12.80
2014,03,09,12,06,12.80
2014,03,09,12,07,12.80
2014,03,09,12,08,12.80
2014,03,09,12,09,12.80
2014,03,09,12,10,12.80
2014,03,09,12,11,12.80
2014,03,09,12,12,12.80
2014,03,09,12,13,12.80
2014,03,09,12,14,12.80
2014,03,09,12,15,12.80
2014,03,09,12,16,12.80
2014,03,09,12,17,12.80
2014,03,09,12,18,12.80
2014,03,09,12,19,12.80
2014,03,09,12,20,12.90
2014,03,09,12,21,12.90
2014,03,09,12,22,12.90
2014,03,09,12,23,12.90
2014,03,09,12,24,12.90
2014,03,09,12,25,12.90
2014,03,09,12,26,12.80
2014,03,09,12,27,12.80
2014,03,09,12,28,12.90
2014,03,09,12,29,12.90
2014,03,09,12,30,12.90
2014,03,09,12,31,13.00
2014,03,09,12,32,13.10
2014,03,09,12,33,13.10
2014,03,09,12,34,13.10
2014,03,09,12,35,13.20
2014,03,09,12,36,13.20
2014,03,09,12,37,13.20
2014,03,09,12,38,13.30
2014,03,09,12,39,13.30
2014,03,09,12,40,13.30
2014,03,09,12,41,13.30
2014,03,09,12,42,13.30
2014,03,09,12,43,13.40
2014,03,09,12,44,13.40
2014,03,09,12,45,13.50
2014,03,09,12,46,13.50
2014,03,09,12,47,13.60
2014,03,09,12,48,13.60
2014,03,09,12,49,13.60
2014,03,09,12,50,13.60
2014,03,09,12,51,13.60
2014,03,09,12,52,13.70
2014,03,09,12,53,13.70
2014,03,09,12,54,13.70
2014,03,09,12,55,13.70
2014,03,09,12,56,13.70
2014,03,09,12,57,13.70
2014,03,09,12,58,13.70
2014,03,09,12,59,13.80
2014,03,09,13,00,13.80
2014,03,09,13,01,13.90
2014,03,09,13,02,14.00
2014,03,09,13,03,14.00
2014,03,09,13,04,14.10
2014,03,09,13,05,14.10
2014,03,09,13,06,14.10
2014,03,09,13,07,14.10
2014,03,09,13,08,14.10
2014,03,09,13,09,14.10
2014,03,09,13,10,14.10
2014,03,09,13,11,14.20
2014,03,09,13,12,14.20
2014,03,09,13,13,14.20
2014,03,09,13,14,14.20
2014,03,09,13,15,14.20
2014,03,09,13,16,14.20
2014,03,09,13,17,14.20
2014,03,09,13,18,14.30
2014,03,09,13,19,14.30
2014,03,09,13,20,14.40
2014,03,09,13,21,14.40
2014,03,09,13,22,14.50
2014,03,09,13,23,14.50
2014,03,09,13,24,14.60
2014,03,09,13,25,14.60
2014,03,09,13,26,14.60
2014,03,09,13,27,14.70
2014,03,09,13,28,14.80
2014,03,09,13,29,14.80
2014,03,09,13,30,14.80
2014,03,09,13,31,14.80
2014,03,09,13,32,14.80
2014,03,09,13,33,14.80
2014,03,09,13,34,14.80
2014,03,09,13,35,14.80
2014,03,09,13,36,14.80
2014,03,09,13,37,14.90
2014,03,09,13,38,14.90
2014,03,09,13,39,14.90
2014,03,09,13,40,15.00
2014,03,09,13,41,14.90
2014,03,09,13,42,14.90
2014,03,09,13,43,14.90
2014,03,09,13,44,14.90
2014,03,09,13,45,14.90
2014,03,09,13,46,14.90
2014,03,09,13,47,14.90
2014,03,09,13,48,14.90
2014,03,09,13,49,15.00
2014,03,09,13,50,15.00
2014,03,09,13,51,15.00
2014,03,09,13,52,15.00
2014,03,09,13,53,15.00
2014,03,09,13,54,14.90
2014,03,09,13,55,14.80
2014,03,09,13,56,14.80
2014,03,09,13,57,14.90
2014,03,09,13,58,15.00
2014,03,09,13,59,15.00
2014,03,09,14,00,14.80
2014,03,09,14,01,14.60
2014,03,09,14,02,14.30
2014,03,09,14,03,14.20
2014,03,09,14,04,14.10
2014,03,09,14,05,13.90
2014,03,09,14,06,13.80
2014,03,09,14,07,13.60
2014,03,09,14,08,13.50
2014,03,09,14,09,13.30
2014,03,09,14,10,13.20
2014,03,09,14,11,13.00
2014,03,09,14,12,12.90
2014,03,09,14,13,12.80
2014,03,09,14,14,12.80
2014,03,09,14,15,12.90
2014,03,09,14,16,12.90
2014,03,09,14,17,12.80
2014,03,09,14,18,12.60
2014,03,09,14,19,12.50
2014,03,09,14,20,12.50
2014,03,09,14,21,12.50
2014,03,09,14,22,12.50
2014,03,09,14,23,12.40
2014,03,09,14,24,12.20
2014,03,09,14,25,12.10
2014,03,09,14,26,12.00
2014,03,09,14,27,12.00
2014,03,09,14,28,11.90
2014,03,09,14,29,11.90
2014,03,09,14,30,12.00
2014,03,09,14,31,12.10
2014,03,09,14,32,12.20
2014,03,09,14,33,12.20
2014,03,09,14,34,12.20
2014,03,09,14,35,12.30
2014,03,09,14,36,12.40
2014,03,09,14,37,12.40
2014,03,09,14,38,12.30
2014,03,09,14,39,12.30
2014,03,09,14,40,12.40
2014,03,09,14,41,12.40
2014,03,09,14,42,12.50
2014,03,09,14,43,12.50
2014,03,09,14,44,12.50
2014,03,09,14,45,12.50
2014,03,09,14,46,12.40
2014,03,09,14,47,12.40
2014,03,09,14,48,12.30
2014,03,09,14,49,12.30
2014,03,09,14,50,12.30
2014,03,09,14,51,12.30
2014,03,09,14,52,12.50
2014,03,09,14,53,12.60
2014,03,09,14,54,12.60
2014,03,09,14,55,12.70
2014,03,09,14,56,12.80
2014,03,09,14,57,12.80
2014,03,09,14,58,12.90
2014,03,09,14,59,12.90
2014,03,09,15,00,12.80
2014,03,09,15,01,12.80
2014,03,09,15,02,12.70
2014,03,09,15,03,12.70
2014,03,09,15,04,12.70
2014,03,09,15,05,12.70
2014,03,09,15,06,12.80
2014,03,09,15,07,12.80
2014,03,09,15,08,12.90
2014,03,09,15,09,13.00
2014,03,09,15,10,13.00
2014,03,09,15,11,12.90
2014,03,09,15,12,12.80
2014,03,09,15,13,12.80
2014,03,09,15,14,12.80
2014,03,09,15,15,12.80
2014,03,09,15,16,12.80
2014,03,09,15,17,12.60
2014,03,09,15,18,12.40
2014,03,09,15,19,12.20
2014,03,09,15,20,11.90
2014,03,09,15,21,11.70
2014,03,09,15,22,11.50
2014,03,09,15,23,11.30
2014,03,09,15,24,11.10
2014,03,09,15,25,10.90
2014,03,09,15,26,10.90
2014,03,09,15,27,10.90
2014,03,09,15,28,10.80
2014,03,09,15,29,10.80
2014,03,09,15,30,10.80
2014,03,09,15,31,10.80
2014,03,09,15,32,10.80
2014,03,09,15,33,10.70
2014,03,09,15,34,10.80
2014,03,09,15,35,10.80
2014,03,09,15,36,10.80
2014,03,09,15,37,10.80
2014,03,09,15,38,10.80
2014,03,09,15,39,10.70
2014,03,09,15,40,10.70
2014,03,09,15,41,10.70
2014,03,09,15,42,10.60
2014,03,09,15,43,10.70
2014,03,09,15,44,10.60
2014,03,09,15,45,10.60
2014,03,09,15,46,10.60
2014,03,09,15,47,10.60
2014,03,09,15,48,10.50
2014,03,09,15,49,10.40
2014,03,09,15,50,10.40
2014,03,09,15,51,10.30
2014,03,09,15,52,10.30
2014,03,09,15,53,10.20
2014,03,09,15,54,10.20
2014,03,09,15,55,10.30
2014,03,09,15,56,10.40
2014,03,09,15,57,10.40
2014,03,09,15,58,10.50
2014,03,09,15,59,10.60
2014,03,09,16,00,10.60
2014,03,09,16,01,10.70
2014,03,09,16,02,10.80
2014,03,09,16,03,10.90
2014,03,09,16,04,10.90
2014,03,09,16,05,10.90
2014,03,09,16,06,10.90
2014,03,09,16,07,10.90
2014,03,09,16,08,10.90
2014,03,09,16,09,10.90
2014,03,09,16,10,10.90
2014,03,09,16,11,10.90
2014,03,09,16,12,10.90
2014,03,09,16,13,10.90
2014,03,09,16,14,10.90
2014,03,09,16,15,10.90
2014,03,09,16,16,10.90
2014,03,09,16,17,10.80
2014,03,09,16,18,10.70
2014,03,09,16,19,10.60
2014,03,09,16,20,10.60
2014,03,09,16,21,10.50
2014,03,09,16,22,10.40
2014,03,09,16,23,10.30
2014,03,09,16,24,10.20
2014,03,09,16,25,10.10
2014,03,09,16,26,10.10
2014,03,09,16,27,10.00
2014,03,09,16,28,9.90
2014,03,09,16,29,10.00
2014,03,09,16,30,9.90
2014,03,09,16,31,9.90
2014,03,09,16,32,9.90
2014,03,09,16,33,9.90
2014,03,09,16,34,10.00
2014,03,09,16,35,10.10
2014,03,09,16,36,10.00
2014,03,09,16,37,9.90
2014,03,09,16,38,9.90
2014,03,09,16,39,9.80
2014,03,09,16,40,9.70
2014,03,09,16,41,9.70
2014,03,09,16,42,9.80
2014,03,09,16,43,9.80
2014,03,09,16,44,9.80
2014,03,09,16,45,9.90
2014,03,09,16,46,9.90
2014,03,09,16,47,9.90
2014,03,09,16,48,9.90
2014,03,09,16,49,9.90
2014,03,09,16,50,9.90
2014,03,09,16,51,9.90
2014,03,09,16,52,9.90
2014,03,09,16,53,9.90
2014,03,09,16,54,9.90
2014,03,09,16,55,10.00
2014,03,09,16,56,10.10
2014,03,09,16,57,10.10
2014,03,09,16,58,10.10
2014,03,09,16,59,10.10
2014,03,09,17,00,10.10
2014,03,09,17,01,10.20
2014,03,09,17,02,10.20
2014,03,09,17,03,10.30
2014,03,09,17,04,10.30
2014,03,09,17,05,10.30
2014,03,09,17,06,10.30
2014,03,09,17,07,10.40
2014,03,09,17,08,10.40
2014,03,09,17,09,10.40
2014,03,09,17,10,10.40
2014,03,09,17,11,10.40
2014,03,09,17,12,10.40
2014,03,09,17,13,10.40
2014,03,09,17,14,10.50
2014,03,09,17,15,10.60
2014,03,09,17,16,10.40
2014,03,09,17,17,10.40
2014,03,09,17,18,10.50
2014,03,09,17,19,10.40
2014,03,09,17,20,10.40
2014,03,09,17,21,10.40
2014,03,09,17,22,10.40
2014,03,09,17,23,10.40
2014,03,09,17,24,10.40
2014,03,09,17,25,10.40
2014,03,09,17,26,10.30
2014,03,09,17,27,10.30
2014,03,09,17,28,10.30
2014,03,09,17,29,10.30
2014,03,09,17,30,10.30
2014,03,09,17,31,10.30
2014,03,09,17,32,10.40
2014,03,09,17,33,10.40
2014,03,09,17,34,10.40
2014,03,09,17,35,10.50
2014,03,09,17,36,10.60
2014,03,09,17,37,10.60
2014,03,09,17,38,10.60
2014,03,09,17,39,10.70
2014,03,09,17,40,10.70
2014,03,09,17,41,10.80
2014,03,09,17,42,10.90
2014,03,09,17,43,10.90
2014,03,09,17,44,11.00
2014,03,09,17,45,11.10
2014,03,09,17,46,11.10
2014,03,09,17,47,11.20
2014,03,09,17,48,11.30
2014,03,09,17,49,11.30
2014,03,09,17,50,11.40
2014,03,09,17,51,11.40
2014,03,09,17,52,11.40
2014,03,09,17,53,11.40
2014,03,09,17,54,11.40
2014,03,09,17,55,11.40
2014,03,09,17,56,11.40
2014,03,09,17,57,11.40
2014,03,09,17,58,11.40
2014,03,09,17,59,11.40
2014,03,09,18,00,11.40
2014,03,09,18,01,11.40
2014,03,09,18,02,11.40
2014,03,09,18,03,11.40
2014,03,09,18,04,11.40
2014,03,09,18,05,11.40
2014,03,09,18,06,11.30
2014,03,09,18,07,11.20
2014,03,09,18,08,11.20
2014,03,09,18,09,11.20
2014,03,09,18,10,11.20
2014,03,09,18,11,11.10
2014,03,09,18,12,11.10
2014,03,09,18,13,11.10
2014,03,09,18,14,11.00
2014,03,09,18,15,10.90
2014,03,09,18,16,10.90
2014,03,09,18,17,10.90
2014,03,09,18,18,10.90
2014,03,09,18,19,10.90
2014,03,09,18,20,10.90
2014,03,09,18,21,10.80
2014,03,09,18,22,10.80
2014,03,09,18,23,10.80
2014,03,09,18,24,10.70
2014,03,09,18,25,10.70
2014,03,09,18,26,10.70
2014,03,09,18,27,10.80
2014,03,09,18,28,10.80
2014,03,09,18,29,10.80
2014,03,09,18,30,10.80
2014,03,09,18,31,10.70
2014,03,09,18,32,10.70
2014,03,09,18,33,10.70
2014,03,09,18,34,10.70
2014,03,09,18,35,10.70
2014,03,09,18,36,10.70
2014,03,09,18,37,10.70
2014,03,09,18,38,10.60
2014,03,09,18,39,10.60
2014,03,09,18,40,10.60
2014,03,09,18,41,10.60
2014,03,09,18,42,10.60